Moody AFB, GA

3:42 PM EST on February 20, 2017 (GMT -0500)
Moody Air Force Base

Weather History for KVAD - October, 2013

Change the Weather History Date:

Wednesday, October 2, 2013

  Actual Average Record
Temperature  
Mean Temperature 72 °F -  
Max Temperature 84 °F 80 °F 91 °F (2006)
Min Temperature 60 °F 63 °F 44 °F (2011)
Cooling Degree Days 6    
Growing Degree Days 22 (Base 50)    
Moisture  
Dew Point 61 °F    
Average Humidity 73    
Maximum Humidity 99    
Minimum Humidity 46    
Precipitation  
Precipitation 0.00 in - - ()
Sea Level Pressure  
Sea Level Pressure 30.10 in    
Wind  
Wind Speed 3 mph (ENE)    
Max Wind Speed 12 mph    
Max Gust Speed -    
Visibility 10 miles    
Events      
Averages and records for this station are not official NWS values.
T = Trace of Precipitation, MM = Missing Value Source: NWS Daily Summary

Daily Weather History Graph

Daily Weather History Graph

Search for Another Location

Airport or City:

Trip Planner

Search our weather history database for the weather conditions in past years. The results will help you decide how hot, cold, wet, or windy it might be!

Date:

Astronomy

Oct. 02, 2013 Rise Set
Actual Time 7:27 AM EDT 7:16 PM EDT
Civil Twilight 7:03 AM EDT 7:40 PM EDT
Nautical Twilight 6:35 AM EDT 8:08 PM EDT
Astronomical Twilight 6:06 AM EDT 8:36 PM EDT
Moon 5:06 AM EDT (10/2) 5:46 PM EDT (10/2)
Length of Visible Light 12h 37m
Length of Day
11h 49m
Waning Crescent, 6% of the Moon is Illuminated
Oct 2
Waning Crescent
Oct 4
New
Oct 11
First Quarter
Oct 18
Full
Oct 26
Last Quarter

Hourly Weather History & Observations

Time (EDT) Temp. Heat Index Dew Point Humidity Pressure Visibility Wind Dir Wind Speed Gust Speed Precip Events Conditions
12:58 AM 66.2 °F - 61.9 °F 86% 30.12 in 10.0 mi East 2.3 mph - N/A   Clear
1:58 AM 65.3 °F - 61.5 °F 88% 30.12 in 10.0 mi ESE 2.3 mph - N/A   Clear
2:58 AM 64.0 °F - 61.7 °F 92% 30.10 in 10.0 mi Calm Calm - N/A   Clear
3:58 AM 62.4 °F - 61.2 °F 96% 30.09 in 10.0 mi Calm Calm - N/A   Clear
4:58 AM 61.2 °F - 60.3 °F 97% 30.09 in 10.0 mi North 2.3 mph - N/A   Clear
5:58 AM 61.7 °F - 61.2 °F 98% 30.09 in 10.0 mi NNE 2.3 mph - N/A   Clear
6:58 AM 60.8 °F - 60.4 °F 99% 30.09 in 10.0 mi Calm Calm - N/A   Clear
7:58 AM 60.6 °F - 60.4 °F 99% 30.11 in 10.0 mi Calm Calm - N/A   Clear
8:58 AM 65.8 °F - 64.2 °F 94% 30.13 in 10.0 mi NE 2.3 mph - N/A   Clear
9:58 AM 72.9 °F - 64.0 °F 74% 30.14 in 10.0 mi East 3.5 mph - N/A   Clear
10:58 AM 77.2 °F - 61.3 °F 58% 30.14 in 10.0 mi East 8.1 mph - N/A   Clear
11:58 AM 79.5 °F - 61.3 °F 54% 30.12 in 10.0 mi NE 10.4 mph - N/A   Clear
12:58 PM 81.1 °F 81.8 °F 60.4 °F 49% 30.12 in 10.0 mi ENE 11.5 mph - N/A   Clear
1:58 PM 82.6 °F 83.1 °F 61.3 °F 48% 30.09 in 10.0 mi NNE 4.6 mph - N/A   Clear
2:58 PM 83.1 °F 83.3 °F 60.4 °F 46% 30.07 in 10.0 mi NE 8.1 mph - N/A   Clear
3:58 PM 83.7 °F 83.9 °F 60.8 °F 46% 30.06 in 10.0 mi East 6.9 mph - N/A   Clear
4:58 PM 83.1 °F 83.5 °F 60.8 °F 47% 30.06 in 10.0 mi East 6.9 mph - N/A   Clear
5:58 PM 80.4 °F 81.6 °F 62.2 °F 54% 30.06 in 10.0 mi East 4.6 mph - N/A   Partly Cloudy
6:58 PM 77.0 °F - 63.0 °F 62% 30.06 in 10.0 mi East 2.3 mph - N/A   Clear
7:58 PM 73.4 °F - 63.0 °F 70% 30.06 in 10.0 mi East 5.8 mph - N/A   Clear
8:58 PM 72.1 °F - 61.7 °F 70% 30.09 in 10.0 mi East 8.1 mph - N/A   Clear
9:58 PM 70.0 °F - 60.8 °F 73% 30.09 in 10.0 mi East 6.9 mph - N/A   Clear
10:58 PM 68.0 °F - 60.4 °F 77% 30.12 in 10.0 mi East 4.6 mph - N/A   Clear
11:58 PM 66.9 °F - 60.1 °F 79% 30.12 in 10.0 mi East 3.5 mph - N/A   Clear